Time,TemperatureF,DewpointF,PressureIn,WindDirection,WindDirectionDegrees,WindSpeedMPH,WindSpeedGustMPH,Humidity,HourlyPrecipIn,Conditions,Clouds,dailyrainin,SoftwareType,DateUTC
2013-08-24 00:01:00,65.4,55.7,30.09,West,272,0.0,0.0,71,0.00,,,0.00,WeatherCatV1.21B27,2013-08-24 06:01:00,
2013-08-24 00:06:00,65.2,55.9,30.10,West,272,0.0,0.0,72,0.00,,,0.00,WeatherCatV1.21B27,2013-08-24 06:06:00,
2013-08-24 00:11:00,65.1,55.8,30.10,West,273,0.0,0.0,72,0.00,,,0.00,WeatherCatV1.21B27,2013-08-24 06:11:00,
2013-08-24 00:16:00,64.9,56.0,30.10,West,273,0.0,0.0,73,0.00,,,0.00,WeatherCatV1.21B27,2013-08-24 06:16:00,
2013-08-24 00:21:00,64.6,55.7,30.10,West,273,0.0,0.0,73,0.00,,,0.00,WeatherCatV1.21B27,2013-08-24 06:21:00,
2013-08-24 00:26:00,64.4,55.5,30.10,West,272,0.0,0.0,73,0.00,,,0.00,WeatherCatV1.21B27,2013-08-24 06:26:00,
2013-08-24 00:31:00,64.2,55.7,30.10,West,273,0.0,0.0,74,0.00,,,0.00,WeatherCatV1.21B27,2013-08-24 06:31:00,
2013-08-24 00:36:00,64.0,55.9,30.10,West,273,0.0,0.0,75,0.00,,,0.00,WeatherCatV1.21B27,2013-08-24 06:36:00,
2013-08-24 00:41:00,63.8,55.7,30.10,West,272,0.0,0.0,75,0.00,,,0.00,WeatherCatV1.21B27,2013-08-24 06:41:00,
2013-08-24 00:46:00,63.6,55.9,30.10,West,273,0.0,0.0,76,0.00,,,0.00,WeatherCatV1.21B27,2013-08-24 06:46:00,
2013-08-24 00:51:00,63.4,55.7,30.10,West,273,0.0,0.0,76,0.00,,,0.00,WeatherCatV1.21B27,2013-08-24 06:51:00,
2013-08-24 00:56:00,63.2,55.5,30.10,West,273,0.0,0.0,76,0.00,,,0.00,WeatherCatV1.21B27,2013-08-24 06:56:00,
2013-08-24 01:01:00,62.9,55.2,30.10,West,272,0.0,0.0,76,0.00,,,0.00,WeatherCatV1.21B27,2013-08-24 07:01:00,
2013-08-24 01:06:00,62.8,55.5,30.10,West,273,0.0,0.0,77,0.00,,,0.00,WeatherCatV1.21B27,2013-08-24 07:06:00,
2013-08-24 01:11:00,62.8,55.5,30.10,West,273,0.0,0.0,77,0.00,,,0.00,WeatherCatV1.21B27,2013-08-24 07:11:00,
2013-08-24 01:16:00,62.6,55.3,30.10,West,273,0.0,0.0,77,0.00,,,0.00,WeatherCatV1.21B27,2013-08-24 07:16:00,
2013-08-24 01:21:00,62.6,55.3,30.10,West,273,0.0,0.0,77,0.00,,,0.00,WeatherCatV1.21B27,2013-08-24 07:21:00,
2013-08-24 01:26:00,62.4,55.4,30.10,West,273,0.0,0.0,78,0.00,,,0.00,WeatherCatV1.21B27,2013-08-24 07:26:00,
2013-08-24 01:31:00,62.2,55.2,30.11,West,273,0.0,0.0,78,0.00,,,0.00,WeatherCatV1.21B27,2013-08-24 07:31:00,
2013-08-24 01:36:00,62.1,55.2,30.11,West,272,0.0,0.0,78,0.00,,,0.00,WeatherCatV1.21B27,2013-08-24 07:36:00,
2013-08-24 01:41:00,61.9,55.0,30.11,West,273,0.0,0.0,78,0.00,,,0.00,WeatherCatV1.21B27,2013-08-24 07:41:00,
2013-08-24 01:46:00,61.7,55.1,30.11,West,273,0.0,0.0,79,0.00,,,0.00,WeatherCatV1.21B27,2013-08-24 07:46:00,
2013-08-24 01:51:00,61.6,55.0,30.10,West,272,0.0,0.0,79,0.00,,,0.00,WeatherCatV1.21B27,2013-08-24 07:51:00,
2013-08-24 01:56:00,61.5,54.9,30.10,West,273,0.0,0.0,79,0.00,,,0.00,WeatherCatV1.21B27,2013-08-24 07:56:00,
2013-08-24 02:01:00,61.4,54.8,30.10,West,273,0.0,0.0,79,0.00,,,0.00,WeatherCatV1.21B27,2013-08-24 08:01:00,
2013-08-24 02:06:00,61.4,54.8,30.10,West,273,0.0,0.0,79,0.00,,,0.00,WeatherCatV1.21B27,2013-08-24 08:06:00,
2013-08-24 02:11:00,61.3,55.1,30.10,West,273,0.0,0.0,80,0.00,,,0.00,WeatherCatV1.21B27,2013-08-24 08:11:00,
2013-08-24 02:16:00,61.3,55.1,30.10,West,273,0.0,0.0,80,0.00,,,0.00,WeatherCatV1.21B27,2013-08-24 08:16:00,
2013-08-24 02:21:00,61.3,55.1,30.10,West,273,0.0,0.0,80,0.00,,,0.00,WeatherCatV1.21B27,2013-08-24 08:21:00,
2013-08-24 02:26:00,61.3,54.7,30.10,West,272,0.0,0.0,79,0.00,,,0.00,WeatherCatV1.21B27,2013-08-24 08:26:00,
2013-08-24 02:31:00,61.2,54.6,30.11,West,272,0.0,0.0,79,0.00,,,0.00,WeatherCatV1.21B27,2013-08-24 08:31:00,
2013-08-24 02:36:00,61.1,54.5,30.10,West,273,0.0,0.0,79,0.00,,,0.00,WeatherCatV1.21B27,2013-08-24 08:36:00,
2013-08-24 02:41:00,60.9,54.7,30.11,West,273,0.0,0.0,80,0.00,,,0.00,WeatherCatV1.21B27,2013-08-24 08:41:00,
2013-08-24 02:46:00,60.8,54.6,30.11,West,272,0.0,0.0,80,0.00,,,0.00,WeatherCatV1.21B27,2013-08-24 08:46:00,
2013-08-24 02:51:00,60.7,54.5,30.11,West,273,0.0,0.0,80,0.00,,,0.00,WeatherCatV1.21B27,2013-08-24 08:51:00,
2013-08-24 02:56:00,60.7,54.5,30.11,West,272,0.0,0.0,80,0.00,,,0.00,WeatherCatV1.21B27,2013-08-24 08:56:00,
2013-08-24 03:01:00,60.6,54.4,30.11,West,273,0.0,0.0,80,0.00,,,0.00,WeatherCatV1.21B27,2013-08-24 09:01:00,
2013-08-24 03:06:00,60.5,54.3,30.11,West,273,0.0,0.0,80,0.00,,,0.00,WeatherCatV1.21B27,2013-08-24 09:06:00,
2013-08-24 03:11:00,60.4,54.2,30.10,West,273,0.0,0.0,80,0.00,,,0.00,WeatherCatV1.21B27,2013-08-24 09:11:00,
2013-08-24 03:16:00,60.2,54.0,30.10,West,272,0.0,0.0,80,0.00,,,0.00,WeatherCatV1.21B27,2013-08-24 09:16:00,
2013-08-24 03:21:00,60.1,54.2,30.11,West,272,0.0,0.0,81,0.00,,,0.00,WeatherCatV1.21B27,2013-08-24 09:21:00,
2013-08-24 03:26:00,60.1,54.2,30.11,West,273,0.0,0.0,81,0.00,,,0.00,WeatherCatV1.21B27,2013-08-24 09:26:00,
2013-08-24 03:31:00,60.0,54.2,30.11,West,273,0.0,0.0,81,0.00,,,0.00,WeatherCatV1.21B27,2013-08-24 09:31:00,
2013-08-24 03:36:00,60.0,53.8,30.11,West,272,0.0,0.0,80,0.00,,,0.00,WeatherCatV1.21B27,2013-08-24 09:36:00,
2013-08-24 03:41:00,60.0,53.5,30.11,West,273,0.0,0.0,79,0.00,,,0.00,WeatherCatV1.21B27,2013-08-24 09:41:00,
2013-08-24 03:46:00,60.1,53.6,30.11,West,273,0.0,0.0,79,0.00,,,0.00,WeatherCatV1.21B27,2013-08-24 09:46:00,
2013-08-24 03:51:00,60.2,53.7,30.11,West,272,0.0,0.0,79,0.00,,,0.00,WeatherCatV1.21B27,2013-08-24 09:51:00,
2013-08-24 03:56:00,60.2,53.7,30.11,West,272,0.0,0.0,79,0.00,,,0.00,WeatherCatV1.21B27,2013-08-24 09:56:00,
2013-08-24 04:01:00,60.1,53.2,30.10,West,273,0.0,0.0,78,0.00,,,0.00,WeatherCatV1.21B27,2013-08-24 10:01:00,
2013-08-24 04:06:00,60.0,53.1,30.11,West,272,0.0,0.0,78,0.00,,,0.00,WeatherCatV1.21B27,2013-08-24 10:06:00,
2013-08-24 04:11:00,59.9,53.0,30.11,West,272,0.0,0.0,78,0.00,,,0.00,WeatherCatV1.21B27,2013-08-24 10:11:00,
2013-08-24 04:16:00,59.8,52.9,30.10,West,273,0.0,0.0,78,0.00,,,0.00,WeatherCatV1.21B27,2013-08-24 10:16:00,
2013-08-24 04:21:00,59.8,52.9,30.11,West,273,0.0,0.0,78,0.00,,,0.00,WeatherCatV1.21B27,2013-08-24 10:21:00,
2013-08-24 04:26:00,59.9,53.0,30.11,West,272,0.0,0.0,78,0.00,,,0.00,WeatherCatV1.21B27,2013-08-24 10:26:00,
2013-08-24 04:31:00,60.0,52.8,30.10,West,272,0.0,0.0,77,0.00,,,0.00,WeatherCatV1.21B27,2013-08-24 10:31:00,
2013-08-24 04:36:00,60.0,52.8,30.10,West,273,0.0,0.0,77,0.00,,,0.00,WeatherCatV1.21B27,2013-08-24 10:36:00,
2013-08-24 04:41:00,60.0,52.8,30.11,West,272,0.0,0.0,77,0.00,,,0.00,WeatherCatV1.21B27,2013-08-24 10:41:00,
2013-08-24 04:46:00,59.9,52.7,30.11,West,272,0.0,0.0,77,0.00,,,0.00,WeatherCatV1.21B27,2013-08-24 10:46:00,
2013-08-24 04:51:00,59.8,52.2,30.11,West,273,0.0,0.0,76,0.00,,,0.00,WeatherCatV1.21B27,2013-08-24 10:51:00,
2013-08-24 04:56:00,59.8,52.2,30.11,West,273,0.0,0.0,76,0.00,,,0.00,WeatherCatV1.21B27,2013-08-24 10:56:00,
2013-08-24 05:01:00,59.8,52.2,30.11,West,272,0.0,0.0,76,0.00,,,0.00,WeatherCatV1.21B27,2013-08-24 11:01:00,
2013-08-24 05:06:00,59.8,51.9,30.11,West,272,0.0,0.0,75,0.00,,,0.00,WeatherCatV1.21B27,2013-08-24 11:06:00,
2013-08-24 05:11:00,59.8,52.2,30.11,West,273,0.0,0.0,76,0.00,,,0.00,WeatherCatV1.21B27,2013-08-24 11:11:00,
2013-08-24 05:16:00,59.7,52.1,30.11,West,272,0.0,0.0,76,0.00,,,0.00,WeatherCatV1.21B27,2013-08-24 11:16:00,
2013-08-24 05:21:00,59.5,51.9,30.11,West,272,0.0,0.0,76,0.00,,,0.00,WeatherCatV1.21B27,2013-08-24 11:21:00,
2013-08-24 05:26:00,59.3,51.7,30.11,West,273,0.0,0.0,76,0.00,,,0.00,WeatherCatV1.21B27,2013-08-24 11:26:00,
2013-08-24 05:31:00,59.0,51.8,30.11,West,273,0.0,0.0,77,0.00,,,0.00,WeatherCatV1.21B27,2013-08-24 11:31:00,
2013-08-24 05:36:00,59.0,51.8,30.11,West,272,0.0,0.0,77,0.00,,,0.00,WeatherCatV1.21B27,2013-08-24 11:36:00,
2013-08-24 05:41:00,59.0,52.2,30.11,West,273,0.0,0.0,78,0.00,,,0.00,WeatherCatV1.21B27,2013-08-24 11:41:00,
2013-08-24 05:46:00,58.8,52.0,30.11,West,273,0.0,0.0,78,0.00,,,0.00,WeatherCatV1.21B27,2013-08-24 11:46:00,
2013-08-24 05:51:00,58.6,51.8,30.11,West,272,0.0,0.0,78,0.00,,,0.00,WeatherCatV1.21B27,2013-08-24 11:51:00,
2013-08-24 05:56:00,58.4,51.6,30.11,West,272,0.0,0.0,78,0.00,,,0.00,WeatherCatV1.21B27,2013-08-24 11:56:00,
2013-08-24 06:01:00,58.2,51.4,30.11,West,273,0.0,0.0,78,0.00,,,0.00,WeatherCatV1.21B27,2013-08-24 12:01:00,
2013-08-24 06:06:00,58.0,51.2,30.11,West,273,0.0,0.0,78,0.00,,,0.00,WeatherCatV1.21B27,2013-08-24 12:06:00,
2013-08-24 06:11:00,57.8,51.3,30.11,West,272,0.0,0.0,79,0.00,,,0.00,WeatherCatV1.21B27,2013-08-24 12:11:00,
2013-08-24 06:16:00,57.6,51.1,30.11,West,273,0.0,0.0,79,0.00,,,0.00,WeatherCatV1.21B27,2013-08-24 12:16:00,
2013-08-24 06:21:00,57.5,51.4,30.11,West,273,0.0,0.0,80,0.00,,,0.00,WeatherCatV1.21B27,2013-08-24 12:21:00,
2013-08-24 06:26:00,57.4,51.3,30.11,West,272,0.0,0.0,80,0.00,,,0.00,WeatherCatV1.21B27,2013-08-24 12:26:00,
2013-08-24 06:31:00,57.3,51.2,30.12,West,272,0.0,0.0,80,0.00,,,0.00,WeatherCatV1.21B27,2013-08-24 12:31:00,
2013-08-24 06:36:00,57.2,51.1,30.12,West,273,0.0,0.0,80,0.00,,,0.00,WeatherCatV1.21B27,2013-08-24 12:36:00,
2013-08-24 06:41:00,57.2,51.1,30.11,West,273,0.0,0.0,80,0.00,,,0.00,WeatherCatV1.21B27,2013-08-24 12:41:00,
2013-08-24 06:46:00,57.2,51.4,30.12,West,272,0.0,0.0,81,0.00,,,0.00,WeatherCatV1.21B27,2013-08-24 12:46:00,
2013-08-24 06:51:00,57.6,51.8,30.12,West,273,0.0,0.0,81,0.00,,,0.00,WeatherCatV1.21B27,2013-08-24 12:51:00,
2013-08-24 06:56:00,57.9,51.8,30.12,West,272,0.0,0.0,80,0.00,,,0.00,WeatherCatV1.21B27,2013-08-24 12:56:00,
2013-08-24 07:01:00,58.4,51.9,30.12,West,272,0.0,0.0,79,0.00,,,0.00,WeatherCatV1.21B27,2013-08-24 13:01:00,
2013-08-24 07:06:00,58.8,52.3,30.12,West,273,0.0,0.0,79,0.00,,,0.00,WeatherCatV1.21B27,2013-08-24 13:06:00,
2013-08-24 07:11:00,59.0,52.2,30.12,West,273,0.0,0.0,78,0.00,,,0.00,WeatherCatV1.21B27,2013-08-24 13:11:00,
2013-08-24 07:16:00,59.5,52.6,30.12,West,273,0.0,0.0,78,0.00,,,0.00,WeatherCatV1.21B27,2013-08-24 13:16:00,
2013-08-24 07:21:00,60.4,52.8,30.12,West,272,0.0,0.0,76,0.00,,,0.00,WeatherCatV1.21B27,2013-08-24 13:21:00,
2013-08-24 07:26:00,61.2,53.2,30.12,West,273,0.0,0.0,75,0.00,,,0.00,WeatherCatV1.21B27,2013-08-24 13:26:00,
2013-08-24 07:31:00,62.1,53.3,30.12,West,272,0.0,0.0,73,0.00,,,0.00,WeatherCatV1.21B27,2013-08-24 13:31:00,
2013-08-24 07:36:00,63.2,54.0,30.13,West,272,0.0,0.0,72,0.00,,,0.00,WeatherCatV1.21B27,2013-08-24 13:36:00,
2013-08-24 07:41:00,64.2,54.2,30.13,West,273,0.0,0.0,70,0.00,,,0.00,WeatherCatV1.21B27,2013-08-24 13:41:00,
2013-08-24 07:46:00,65.0,54.2,30.12,West,273,0.0,0.0,68,0.00,,,0.00,WeatherCatV1.21B27,2013-08-24 13:46:00,
2013-08-24 07:51:00,65.9,53.8,30.12,West,273,0.0,0.0,65,0.00,,,0.00,WeatherCatV1.21B27,2013-08-24 13:51:00,
2013-08-24 07:56:00,66.8,54.2,30.13,West,272,0.0,0.0,64,0.00,,,0.00,WeatherCatV1.21B27,2013-08-24 13:56:00,
2013-08-24 08:01:00,67.1,53.6,30.13,West,273,0.0,0.0,62,0.00,,,0.00,WeatherCatV1.21B27,2013-08-24 14:01:00,
2013-08-24 08:06:00,66.9,52.5,30.13,West,273,0.0,0.0,60,0.00,,,0.00,WeatherCatV1.21B27,2013-08-24 14:06:00,
2013-08-24 08:11:00,67.0,52.7,30.13,West,272,0.0,0.0,60,0.00,,,0.00,WeatherCatV1.21B27,2013-08-24 14:11:00,
2013-08-24 08:16:00,67.0,52.7,30.13,West,272,0.0,2.0,60,0.00,,,0.00,WeatherCatV1.21B27,2013-08-24 14:16:00,
2013-08-24 08:21:00,67.2,53.3,30.13,West,269,0.0,3.0,61,0.00,,,0.00,WeatherCatV1.21B27,2013-08-24 14:21:00,
2013-08-24 08:26:00,67.4,53.0,30.13,West,269,0.0,0.0,60,0.00,,,0.00,WeatherCatV1.21B27,2013-08-24 14:26:00,
2013-08-24 08:31:00,67.6,53.2,30.13,West,268,0.0,0.0,60,0.00,,,0.00,WeatherCatV1.21B27,2013-08-24 14:31:00,
2013-08-24 08:36:00,68.3,52.9,30.13,West,269,0.0,0.0,58,0.00,,,0.00,WeatherCatV1.21B27,2013-08-24 14:36:00,
2013-08-24 08:41:00,68.6,52.3,30.13,West,267,0.0,2.0,56,0.00,,,0.00,WeatherCatV1.21B27,2013-08-24 14:41:00,
2013-08-24 08:46:00,68.9,52.5,30.13,West,267,0.0,0.0,56,0.00,,,0.00,WeatherCatV1.21B27,2013-08-24 14:46:00,
2013-08-24 08:51:00,69.2,52.8,30.13,West,265,0.0,0.0,56,0.00,,,0.00,WeatherCatV1.21B27,2013-08-24 14:51:00,
2013-08-24 08:56:00,69.6,52.2,30.13,West,266,1.0,2.0,54,0.00,,,0.00,WeatherCatV1.21B27,2013-08-24 14:56:00,
2013-08-24 09:01:00,70.1,53.2,30.13,West,266,0.0,0.0,55,0.00,,,0.00,WeatherCatV1.21B27,2013-08-24 15:01:00,
2013-08-24 09:06:00,71.1,53.6,30.12,West,265,0.0,0.0,54,0.00,,,0.00,WeatherCatV1.21B27,2013-08-24 15:06:00,
2013-08-24 09:11:00,72.1,54.0,30.13,West,265,0.0,0.0,53,0.00,,,0.00,WeatherCatV1.21B27,2013-08-24 15:11:00,
2013-08-24 09:16:00,73.1,53.9,30.12,West,265,0.0,0.0,51,0.00,,,0.00,WeatherCatV1.21B27,2013-08-24 15:16:00,
2013-08-24 09:21:00,74.2,54.9,30.13,West,265,0.0,0.0,51,0.00,,,0.00,WeatherCatV1.21B27,2013-08-24 15:21:00,
2013-08-24 09:26:00,74.8,54.3,30.13,West,265,0.0,0.0,49,0.00,,,0.00,WeatherCatV1.21B27,2013-08-24 15:26:00,
2013-08-24 09:31:00,75.0,54.0,30.13,West,265,0.0,0.0,48,0.00,,,0.00,WeatherCatV1.21B27,2013-08-24 15:31:00,
2013-08-24 09:36:00,75.0,55.1,30.13,West,265,0.0,0.0,50,0.00,,,0.00,WeatherCatV1.21B27,2013-08-24 15:36:00,
2013-08-24 09:41:00,75.4,53.8,30.13,West,265,0.0,0.0,47,0.00,,,0.00,WeatherCatV1.21B27,2013-08-24 15:41:00,
2013-08-24 09:46:00,76.0,56.0,30.13,West,265,0.0,0.0,50,0.00,,,0.00,WeatherCatV1.21B27,2013-08-24 15:46:00,
2013-08-24 09:52:00,76.9,54.5,30.13,West,265,0.0,0.0,46,0.00,,,0.00,WeatherCatV1.21B27,2013-08-24 15:52:00,
2013-08-24 09:57:00,77.5,53.2,30.13,West,265,0.0,0.0,43,0.00,,,0.00,WeatherCatV1.21B27,2013-08-24 15:57:00,
2013-08-24 10:02:00,77.8,54.1,30.13,West,265,0.0,0.0,44,0.00,,,0.00,WeatherCatV1.21B27,2013-08-24 16:02:00,
2013-08-24 10:07:00,78.1,53.8,30.13,West,265,0.0,0.0,43,0.00,,,0.00,WeatherCatV1.21B27,2013-08-24 16:07:00,
2013-08-24 10:12:00,78.3,55.8,30.13,West,265,0.0,0.0,46,0.00,,,0.00,WeatherCatV1.21B27,2013-08-24 16:12:00,
2013-08-24 10:17:00,78.9,55.1,30.13,West,265,0.0,0.0,44,0.00,,,0.00,WeatherCatV1.21B27,2013-08-24 16:17:00,
2013-08-24 10:22:00,79.5,54.4,30.13,West,265,0.0,0.0,42,0.00,,,0.00,WeatherCatV1.21B27,2013-08-24 16:22:00,
2013-08-24 10:27:00,80.0,55.5,30.13,West,265,0.0,0.0,43,0.00,,,0.00,WeatherCatV1.21B27,2013-08-24 16:27:00,
2013-08-24 10:32:00,80.2,53.7,30.13,West,265,0.0,0.0,40,0.00,,,0.00,WeatherCatV1.21B27,2013-08-24 16:32:00,
2013-08-24 10:37:00,80.7,53.4,30.13,West,265,0.0,0.0,39,0.00,,,0.00,WeatherCatV1.21B27,2013-08-24 16:37:00,
2013-08-24 10:42:00,81.2,54.5,30.13,West,265,0.0,0.0,40,0.00,,,0.00,WeatherCatV1.21B27,2013-08-24 16:42:00,
2013-08-24 10:47:00,81.4,55.4,30.13,West,265,0.0,0.0,41,0.00,,,0.00,WeatherCatV1.21B27,2013-08-24 16:47:00,
2013-08-24 10:52:00,81.3,53.2,30.13,West,265,0.0,0.0,38,0.00,,,0.00,WeatherCatV1.21B27,2013-08-24 16:52:00,
2013-08-24 10:57:00,81.1,54.5,30.13,West,265,0.0,0.0,40,0.00,,,0.00,WeatherCatV1.21B27,2013-08-24 16:57:00,
2013-08-24 11:02:00,81.4,54.0,30.13,West,265,0.0,0.0,39,0.00,,,0.00,WeatherCatV1.21B27,2013-08-24 17:02:00,
2013-08-24 11:07:00,82.1,54.7,30.13,West,269,0.0,0.0,39,0.00,,,0.00,WeatherCatV1.21B27,2013-08-24 17:07:00,
2013-08-24 11:12:00,82.2,52.6,30.14,West,279,0.0,0.0,36,0.00,,,0.00,WeatherCatV1.21B27,2013-08-24 17:12:00,
2013-08-24 11:17:00,82.5,53.6,30.14,West,279,0.0,0.0,37,0.00,,,0.00,WeatherCatV1.21B27,2013-08-24 17:17:00,
2013-08-24 11:22:00,83.0,57.5,30.14,West,279,0.0,0.0,42,0.00,,,0.00,WeatherCatV1.21B27,2013-08-24 17:22:00,
2013-08-24 11:27:00,83.2,54.9,30.14,West,277,0.0,0.0,38,0.00,,,0.00,WeatherCatV1.21B27,2013-08-24 17:27:00,
2013-08-24 11:32:00,83.6,53.0,30.14,West,278,0.0,0.0,35,0.00,,,0.00,WeatherCatV1.21B27,2013-08-24 17:32:00,
2013-08-24 11:37:00,84.1,53.5,30.14,WNW,294,0.0,1.0,35,0.00,,,0.00,WeatherCatV1.21B27,2013-08-24 17:37:00,
2013-08-24 11:42:00,84.2,51.1,30.14,WNW,298,0.0,4.0,32,0.00,,,0.00,WeatherCatV1.21B27,2013-08-24 17:42:00,
2013-08-24 11:47:00,84.1,50.2,30.13,ENE,74,2.0,4.0,31,0.00,,,0.00,WeatherCatV1.21B27,2013-08-24 17:47:00,
2013-08-24 11:52:00,83.9,51.7,30.13,ENE,74,0.0,0.0,33,0.00,,,0.00,WeatherCatV1.21B27,2013-08-24 17:52:00,
2013-08-24 11:57:00,84.4,50.4,30.13,ENE,69,0.0,0.0,31,0.00,,,0.00,WeatherCatV1.21B27,2013-08-24 17:57:00,
2013-08-24 12:02:00,84.8,51.6,30.13,NE,49,0.0,3.0,32,0.00,,,0.00,WeatherCatV1.21B27,2013-08-24 18:02:00,
2013-08-24 12:07:00,85.0,52.6,30.13,NE,55,0.0,0.0,33,0.00,,,0.00,WeatherCatV1.21B27,2013-08-24 18:07:00,
2013-08-24 12:12:00,85.1,51.9,30.13,NE,55,0.0,2.0,32,0.00,,,0.00,WeatherCatV1.21B27,2013-08-24 18:12:00,
2013-08-24 12:17:00,85.4,52.2,30.12,NE,51,1.0,2.0,32,0.00,,,0.00,WeatherCatV1.21B27,2013-08-24 18:17:00,
2013-08-24 12:22:00,85.6,54.0,30.12,NE,44,0.0,2.0,34,0.00,,,0.00,WeatherCatV1.21B27,2013-08-24 18:22:00,
2013-08-24 12:27:00,85.9,51.7,30.12,NE,44,0.0,2.0,31,0.00,,,0.00,WeatherCatV1.21B27,2013-08-24 18:27:00,
2013-08-24 12:32:00,86.0,52.7,30.12,NE,44,0.0,0.0,32,0.00,,,0.00,WeatherCatV1.21B27,2013-08-24 18:32:00,
2013-08-24 12:37:00,86.0,52.7,30.12,NNE,30,0.0,4.0,32,0.00,,,0.00,WeatherCatV1.21B27,2013-08-24 18:37:00,
2013-08-24 12:42:00,86.1,53.6,30.12,NNE,30,0.0,2.0,33,0.00,,,0.00,WeatherCatV1.21B27,2013-08-24 18:42:00,
2013-08-24 12:47:00,86.3,52.1,30.12,East,87,1.0,7.0,31,0.00,,,0.00,WeatherCatV1.21B27,2013-08-24 18:47:00,
2013-08-24 12:52:00,86.4,53.0,30.12,East,84,0.0,0.0,32,0.00,,,0.00,WeatherCatV1.21B27,2013-08-24 18:52:00,
2013-08-24 12:57:00,86.2,52.0,30.12,ENE,64,2.0,7.0,31,0.00,,,0.00,WeatherCatV1.21B27,2013-08-24 18:57:00,
2013-08-24 13:02:00,85.8,51.6,30.12,NE,40,1.0,6.0,31,0.00,,,0.00,WeatherCatV1.21B27,2013-08-24 19:02:00,
2013-08-24 13:07:00,85.7,52.4,30.11,NE,42,1.0,3.0,32,0.00,,,0.00,WeatherCatV1.21B27,2013-08-24 19:07:00,
2013-08-24 13:12:00,85.7,53.2,30.11,ENE,77,5.0,5.0,33,0.00,,,0.00,WeatherCatV1.21B27,2013-08-24 19:12:00,
2013-08-24 13:17:00,85.6,53.2,30.12,East,80,0.0,0.0,33,0.00,,,0.00,WeatherCatV1.21B27,2013-08-24 19:17:00,
2013-08-24 13:22:00,85.8,53.3,30.12,ENE,78,0.0,3.0,33,0.00,,,0.00,WeatherCatV1.21B27,2013-08-24 19:22:00,
2013-08-24 13:27:00,85.4,53.0,30.12,East,81,0.0,0.0,33,0.00,,,0.00,WeatherCatV1.21B27,2013-08-24 19:27:00,
2013-08-24 13:32:00,84.9,52.5,30.12,East,82,0.0,0.0,33,0.00,,,0.00,WeatherCatV1.21B27,2013-08-24 19:32:00,
2013-08-24 13:37:00,85.2,52.8,30.12,East,80,0.0,0.0,33,0.00,,,0.00,WeatherCatV1.21B27,2013-08-24 19:37:00,
2013-08-24 13:42:00,86.0,54.3,30.11,East,80,0.0,0.0,34,0.00,,,0.00,WeatherCatV1.21B27,2013-08-24 19:42:00,
2013-08-24 13:47:00,86.3,52.1,30.11,East,80,0.0,0.0,31,0.00,,,0.00,WeatherCatV1.21B27,2013-08-24 19:47:00,
2013-08-24 13:52:00,86.5,53.9,30.11,East,80,0.0,0.0,33,0.00,,,0.00,WeatherCatV1.21B27,2013-08-24 19:52:00,
2013-08-24 13:57:00,86.7,53.3,30.11,East,79,0.0,3.0,32,0.00,,,0.00,WeatherCatV1.21B27,2013-08-24 19:57:00,
2013-08-24 14:02:00,86.5,53.9,30.11,ENE,77,0.0,0.0,33,0.00,,,0.00,WeatherCatV1.21B27,2013-08-24 20:02:00,
2013-08-24 14:07:00,86.5,53.9,30.11,ENE,76,0.0,0.0,33,0.00,,,0.00,WeatherCatV1.21B27,2013-08-24 20:07:00,
2013-08-24 14:12:00,86.5,53.1,30.11,ENE,76,0.0,0.0,32,0.00,,,0.00,WeatherCatV1.21B27,2013-08-24 20:12:00,
2013-08-24 14:17:00,86.8,53.4,30.11,ENE,77,0.0,1.0,32,0.00,,,0.00,WeatherCatV1.21B27,2013-08-24 20:17:00,
2013-08-24 14:22:00,87.3,55.5,30.11,ENE,76,0.0,0.0,34,0.00,,,0.00,WeatherCatV1.21B27,2013-08-24 20:22:00,
2013-08-24 14:27:00,87.7,54.1,30.11,ENE,76,0.0,2.0,32,0.00,,,0.00,WeatherCatV1.21B27,2013-08-24 20:27:00,
2013-08-24 14:32:00,87.3,52.0,30.11,ENE,76,0.0,0.0,30,0.00,,,0.00,WeatherCatV1.21B27,2013-08-24 20:32:00,
2013-08-24 14:37:00,86.8,53.4,30.11,ENE,77,0.0,3.0,32,0.00,,,0.00,WeatherCatV1.21B27,2013-08-24 20:37:00,
2013-08-24 14:42:00,86.3,54.6,30.11,ENE,76,0.0,0.0,34,0.00,,,0.00,WeatherCatV1.21B27,2013-08-24 20:42:00,
2013-08-24 14:47:00,86.2,53.7,30.11,ENE,77,0.0,0.0,33,0.00,,,0.00,WeatherCatV1.21B27,2013-08-24 20:47:00,
2013-08-24 14:52:00,86.1,52.8,30.11,ENE,77,0.0,0.0,32,0.00,,,0.00,WeatherCatV1.21B27,2013-08-24 20:52:00,
2013-08-24 14:57:00,85.9,54.2,30.11,ENE,77,0.0,0.0,34,0.00,,,0.00,WeatherCatV1.21B27,2013-08-24 20:57:00,
2013-08-24 15:02:00,85.5,53.9,30.12,ENE,68,1.0,4.0,34,0.00,,,0.00,WeatherCatV1.21B27,2013-08-24 21:02:00,
2013-08-24 15:07:00,83.6,53.0,30.12,NW,313,3.0,7.0,35,0.00,,,0.00,WeatherCatV1.21B27,2013-08-24 21:07:00,
2013-08-24 15:12:00,81.0,52.2,30.13,NNW,331,0.0,11.0,37,0.00,,,0.00,WeatherCatV1.21B27,2013-08-24 21:12:00,
2013-08-24 15:17:00,79.5,53.0,30.12,WNW,292,1.0,9.0,40,0.00,,,0.00,WeatherCatV1.21B27,2013-08-24 21:17:00,
2013-08-24 15:22:00,78.6,52.9,30.13,WNW,300,2.0,10.0,41,0.00,,,0.00,WeatherCatV1.21B27,2013-08-24 21:22:00,
2013-08-24 15:27:00,77.8,53.5,30.13,SW,229,1.0,7.0,43,0.00,,,0.00,WeatherCatV1.21B27,2013-08-24 21:27:00,
2013-08-24 15:32:00,77.2,53.6,30.13,WSW,248,0.0,0.0,44,0.00,,,0.00,WeatherCatV1.21B27,2013-08-24 21:32:00,
2013-08-24 15:37:00,76.9,53.9,30.13,WSW,249,1.0,3.0,45,0.00,,,0.00,WeatherCatV1.21B27,2013-08-24 21:37:00,
2013-08-24 15:42:00,76.8,54.4,30.12,WSW,256,0.0,4.0,46,0.00,,,0.00,WeatherCatV1.21B27,2013-08-24 21:42:00,
2013-08-24 15:47:00,76.8,54.4,30.13,West,262,0.0,4.0,46,0.00,,,0.00,WeatherCatV1.21B27,2013-08-24 21:47:00,
2013-08-24 15:52:00,76.9,55.7,30.12,West,261,0.0,0.0,48,0.00,,,0.00,WeatherCatV1.21B27,2013-08-24 21:52:00,
2013-08-24 15:57:00,77.1,55.3,30.12,West,266,0.0,0.0,47,0.00,,,0.00,WeatherCatV1.21B27,2013-08-24 21:57:00,
2013-08-24 16:02:00,77.5,55.1,30.12,West,266,0.0,0.0,46,0.00,,,0.00,WeatherCatV1.21B27,2013-08-24 22:02:00,
2013-08-24 16:07:00,77.9,54.2,30.12,West,264,0.0,8.0,44,0.00,,,0.00,WeatherCatV1.21B27,2013-08-24 22:07:00,
2013-08-24 16:12:00,78.1,55.0,30.12,West,264,0.0,0.0,45,0.00,,,0.00,WeatherCatV1.21B27,2013-08-24 22:12:00,
2013-08-24 16:17:00,78.7,54.9,30.12,West,264,0.0,0.0,44,0.00,,,0.00,WeatherCatV1.21B27,2013-08-24 22:17:00,
2013-08-24 16:22:00,79.5,54.4,30.12,West,263,2.0,2.0,42,0.00,,,0.00,WeatherCatV1.21B27,2013-08-24 22:22:00,
2013-08-24 16:27:00,80.0,54.8,30.11,West,273,0.0,6.0,42,0.00,,,0.00,WeatherCatV1.21B27,2013-08-24 22:27:00,
2013-08-24 16:32:00,80.0,54.8,30.12,West,270,0.0,0.0,42,0.00,,,0.00,WeatherCatV1.21B27,2013-08-24 22:32:00,
2013-08-24 16:37:00,79.7,54.5,30.11,WNW,282,0.0,3.0,42,0.00,,,0.00,WeatherCatV1.21B27,2013-08-24 22:37:00,
2013-08-24 16:42:00,79.3,54.2,30.11,WNW,282,0.0,2.0,42,0.00,,,0.00,WeatherCatV1.21B27,2013-08-24 22:42:00,
2013-08-24 16:47:00,79.1,54.7,30.11,West,281,1.0,2.0,43,0.00,,,0.00,WeatherCatV1.21B27,2013-08-24 22:47:00,
2013-08-24 16:52:00,78.8,55.0,30.11,West,281,0.0,0.0,44,0.00,,,0.00,WeatherCatV1.21B27,2013-08-24 22:52:00,
2013-08-24 16:57:00,78.7,54.9,30.12,West,281,0.0,0.0,44,0.00,,,0.00,WeatherCatV1.21B27,2013-08-24 22:57:00,
2013-08-24 17:02:00,78.7,54.9,30.12,West,281,0.0,0.0,44,0.00,,,0.00,WeatherCatV1.21B27,2013-08-24 23:02:00,
2013-08-24 17:07:00,78.7,55.5,30.11,West,281,0.0,0.0,45,0.00,,,0.00,WeatherCatV1.21B27,2013-08-24 23:07:00,
2013-08-24 17:12:00,78.7,55.5,30.11,West,281,0.0,0.0,45,0.00,,,0.00,WeatherCatV1.21B27,2013-08-24 23:12:00,
2013-08-24 17:17:00,78.5,55.4,30.12,West,281,0.0,0.0,45,0.00,,,0.00,WeatherCatV1.21B27,2013-08-24 23:17:00,
2013-08-24 17:22:00,78.3,55.8,30.12,West,281,0.0,0.0,46,0.00,,,0.00,WeatherCatV1.21B27,2013-08-24 23:22:00,
2013-08-24 17:27:00,78.1,55.6,30.12,West,281,0.0,0.0,46,0.00,,,0.00,WeatherCatV1.21B27,2013-08-24 23:27:00,
2013-08-24 17:32:00,77.8,55.3,30.13,West,281,0.0,0.0,46,0.00,,,0.00,WeatherCatV1.21B27,2013-08-24 23:32:00,
2013-08-24 17:37:00,77.7,55.2,30.13,West,281,0.0,0.0,46,0.00,,,0.00,WeatherCatV1.21B27,2013-08-24 23:37:00,
2013-08-24 17:42:00,77.6,54.5,30.12,West,279,1.0,6.0,45,0.00,,,0.00,WeatherCatV1.21B27,2013-08-24 23:42:00,
2013-08-24 17:47:00,77.4,55.6,30.12,West,277,0.0,1.0,47,0.00,,,0.00,WeatherCatV1.21B27,2013-08-24 23:47:00,
2013-08-24 17:52:00,76.9,56.3,30.12,West,277,0.0,0.0,49,0.00,,,0.00,WeatherCatV1.21B27,2013-08-24 23:52:00,
2013-08-24 17:57:00,76.9,56.8,30.11,West,277,0.0,0.0,50,0.00,,,0.00,WeatherCatV1.21B27,2013-08-24 23:57:00,
2013-08-24 18:02:00,77.5,56.2,30.11,West,277,0.0,0.0,48,0.00,,,0.00,WeatherCatV1.21B27,2013-08-25 00:02:00,
2013-08-24 18:07:00,78.1,56.8,30.11,West,277,0.0,0.0,48,0.00,,,0.00,WeatherCatV1.21B27,2013-08-25 00:07:00,
2013-08-24 18:12:00,78.7,56.2,30.11,West,277,0.0,0.0,46,0.00,,,0.00,WeatherCatV1.21B27,2013-08-25 00:12:00,
2013-08-24 18:17:00,79.3,57.3,30.11,West,277,0.0,0.0,47,0.00,,,0.00,WeatherCatV1.21B27,2013-08-25 00:17:00,
2013-08-24 18:22:00,79.5,56.9,30.11,West,276,2.0,4.0,46,0.00,,,0.00,WeatherCatV1.21B27,2013-08-25 00:22:00,
2013-08-24 18:27:00,79.4,56.8,30.11,West,277,1.0,2.0,46,0.00,,,0.00,WeatherCatV1.21B27,2013-08-25 00:27:00,
2013-08-24 18:32:00,78.9,56.9,30.11,West,277,0.0,0.0,47,0.00,,,0.00,WeatherCatV1.21B27,2013-08-25 00:32:00,
2013-08-24 18:37:00,78.7,57.9,30.11,West,276,0.0,0.0,49,0.00,,,0.00,WeatherCatV1.21B27,2013-08-25 00:37:00,
2013-08-24 18:42:00,78.4,57.6,30.11,West,277,0.0,0.0,49,0.00,,,0.00,WeatherCatV1.21B27,2013-08-25 00:42:00,
2013-08-24 18:47:00,78.1,57.9,30.11,West,276,0.0,0.0,50,0.00,,,0.00,WeatherCatV1.21B27,2013-08-25 00:47:00,
2013-08-24 18:52:00,77.8,57.7,30.11,West,277,0.0,0.0,50,0.00,,,0.00,WeatherCatV1.21B27,2013-08-25 00:52:00,
2013-08-24 18:57:00,77.5,57.4,30.11,West,277,0.0,1.0,50,0.00,,,0.00,WeatherCatV1.21B27,2013-08-25 00:57:00,
2013-08-24 19:02:00,77.2,57.1,30.13,West,277,1.0,2.0,50,0.00,,,0.00,WeatherCatV1.21B27,2013-08-25 01:02:00,
2013-08-24 19:07:00,76.9,59.5,30.13,West,277,1.0,2.0,55,0.00,,,0.00,WeatherCatV1.21B27,2013-08-25 01:07:00,
2013-08-24 19:12:00,75.9,60.0,30.13,West,259,0.0,0.0,58,0.00,,,0.01,WeatherCatV1.21B27,2013-08-25 01:12:00,
2013-08-24 19:17:00,74.4,59.1,30.13,SW,232,1.0,3.0,59,0.00,,,0.01,WeatherCatV1.21B27,2013-08-25 01:17:00,
2013-08-24 19:22:00,73.2,59.8,30.13,SW,230,0.0,4.0,63,0.00,,,0.01,WeatherCatV1.21B27,2013-08-25 01:22:00,
2013-08-24 19:27:00,72.5,60.0,30.13,SW,230,0.0,0.0,65,0.00,,,0.01,WeatherCatV1.21B27,2013-08-25 01:27:00,
2013-08-24 19:32:00,72.0,60.4,30.13,SW,230,0.0,0.0,67,0.00,,,0.01,WeatherCatV1.21B27,2013-08-25 01:32:00,
2013-08-24 19:37:00,71.5,60.8,30.13,SW,230,0.0,0.0,69,0.00,,,0.01,WeatherCatV1.21B27,2013-08-25 01:37:00,
2013-08-24 19:42:00,71.2,60.5,30.12,SW,230,0.0,0.0,69,0.00,,,0.01,WeatherCatV1.21B27,2013-08-25 01:42:00,
2013-08-24 19:47:00,70.8,61.3,30.11,SW,230,0.0,0.0,72,0.00,,,0.01,WeatherCatV1.21B27,2013-08-25 01:47:00,
2013-08-24 19:52:00,70.5,61.4,30.11,SW,230,0.0,0.0,73,0.00,,,0.01,WeatherCatV1.21B27,2013-08-25 01:52:00,
2013-08-24 19:57:00,70.1,61.8,30.12,SW,230,0.0,0.0,75,0.00,,,0.01,WeatherCatV1.21B27,2013-08-25 01:57:00,